EW7909 Weather Reports


Display with metric or nautical units.
time (UTC)temp
F
wind
direction
speed
MPH
gust
MPH
rain 1hr
in
rain 24hr
in
rain mn
in
humidity
%
barometer
mb
20260507181533 59 62 4.0 7.0 0.00 0.09 0.09 66 1010.9
20260507180115 60 40 4.0 10.0 0.00 0.09 0.09 64 1010.8
20260507174549 60 64 5.0 9.0 0.00 0.09 0.09 62 1010.9
20260507173127 61 26 3.0 8.0 0.00 0.09 0.09 62 1010.8
20260507171602 61 59 3.0 9.0 0.00 0.09 0.09 62 1010.8
20260507170133 61 297 1.0 2.0 0.00 0.09 0.09 59 1010.7
20260507164607 62 278 2.0 4.0 0.00 0.09 0.09 62 1010.6
20260507163017 62 281 5.0 8.0 0.00 0.09 0.09 59 1010.7
20260507161614 62 266 2.0 6.0 0.00 0.09 0.09 60 1010.7
20260507160033 63 275 4.0 8.0 0.00 0.09 0.09 57 1010.8
20260507154615 64 279 4.0 8.0 0.00 0.09 0.09 53 1010.8
20260507153034 64 255 3.0 9.0 0.00 0.09 0.09 51 1010.8
20260507151627 63 271 6.0 10.0 0.00 0.09 0.09 55 1010.7
20260507150048 63 311 5.0 8.0 0.00 0.09 0.09 55 1010.9
20260507144630 63 306 2.0 9.0 0.00 0.09 0.09 57 1011.0
20260507143100 63 250 10.0 14.0 0.00 0.09 0.09 53 1011.0
20260507141508 62 240 2.0 10.0 0.00 0.09 0.09 55 1010.9
20260507134530 62 278 6.0 12.0 0.00 0.09 0.09 56 1011.2
20260507133114 62 290 4.0 9.0 0.00 0.09 0.09 57 1011.3
20260507131534 62 247 2.0 11.0 0.00 0.09 0.09 55 1011.5
20260507130013 61 290 4.0 12.0 0.00 0.09 0.09 57 1011.4
20260507124601 61 284 6.0 9.0 0.00 0.09 0.09 59 1011.4
20260507123024 60 336 4.0 10.0 0.00 0.09 0.09 61 1011.6
20260507121612 60 302 3.0 11.0 0.00 0.09 0.09 59 1011.5
20260507120034 61 33 3.0 11.0 0.00 0.09 0.09 64 1011.6
20260507114628 61 355 2.0 6.0 0.00 0.09 0.09 64 1011.5
20260507113046 60 319 3.0 9.0 0.00 0.09 0.09 62 1011.7
20260507111639 59 306 3.0 9.0 0.00 0.09 0.09 62 1011.7
20260507110105 59 219 6.0 12.0 0.00 0.09 0.09 66 1011.8
20260507104516 58 280 4.0 10.0 0.00 0.20 0.09 65 1011.9
20260507103109 58 284 1.0 9.0 0.00 0.20 0.09 67 1012.0
20260507101531 58 295 3.0 8.0 0.00 0.20 0.09 67 1012.1
20260507100112 58 238 4.0 11.0 0.00 0.20 0.09 68 1012.2
20260507094527 57 317 2.0 6.0 0.00 0.38 0.09 68 1012.3
20260507093118 57 248 1.0 7.0 0.00 0.38 0.09 65 1012.3
20260507091542 56 216 0.0 6.0 0.00 0.38 0.09 63 1012.4
20260507090130 56 282 3.0 7.0 0.01 0.38 0.09 60 1012.4
20260507084544 55 215 0.0 8.0 0.02 0.43 0.09 62 1012.4
20260507083004 55 252 4.0 8.0 0.02 0.43 0.09 33 1012.4
20260507081554 53 238 1.0 5.0 0.02 0.43 0.09 1 1012.5
20260507080001 53 245 4.0 10.0 0.01 0.42 0.09 1 1012.5
20260507074552 52 246 4.0 7.0 0.00 0.41 0.08 1 1012.5
20260507073019 51 242 2.0 5.0 0.00 0.41 0.08 1 1012.4
20260507071613 51 240 3.0 7.0 0.00 0.41 0.08 1 1012.4
20260507070039 51 225 4.0 7.0 0.00 0.41 0.08 1 1012.3
20260507064621 50 225 0.0 0.0 0.00 0.41 0.08 1 1012.2
20260507063037 50 225 0.0 3.0 0.02 0.41 0.08 1 1012.2
20260507061533 50 225 0.0 0.0 0.02 0.41 0.08 1 1011.9
20260507060027 49 225 0.0 0.0 0.02 0.41 0.08 1 1011.8
20260507054523 49 225 0.0 0.0 0.02 0.41 0.08 1 1011.8
20260507053019 48 225 0.0 0.0 0.00 0.39 0.06 1 1011.7
20260507051515 48 225 0.0 0.0 0.00 0.39 0.06 1 1011.4
20260507050010 48 225 0.0 0.0 0.00 0.39 0.06 1 1011.3
20260507044506 48 225 0.0 0.0 0.00 0.39 0.06 1 1011.1
20260507043001 47 225 0.0 0.0 0.00 0.39 0.06 1 1010.9
20260507041558 47 225 0.0 0.0 0.00 0.39 0.06 1 1010.9
20260507040052 47 225 0.0 0.0 0.00 0.39 0.06 1 1010.8
20260507034557 47 225 0.0 0.0 0.00 0.39 0.06 1 1010.8
20260507033046 47 225 0.0 0.0 0.00 0.39 0.06 1 1010.7
20260507031540 47 225 0.0 0.0 0.00 0.39 0.06 1 1010.7
20260507030036 47 225 0.0 1.0 0.00 0.39 0.06 1 1010.6
20260507024547 47 225 0.0 0.0 0.00 0.39 0.06 1 1010.6
20260507023027 48 225 0.0 0.0 0.00 0.39 0.06 1 1010.6
20260507021523 48 227 0.0 0.0 0.00 0.39 0.06 1 1010.5
20260507020018 48 227 0.0 0.0 0.00 0.39 0.06 1 1010.4
20260507014528 48 227 0.0 0.0 0.00 0.39 0.06 1 1010.4
20260507013009 48 227 0.0 0.0 0.00 0.39 0.06 1 1010.2
20260507011505 48 227 0.0 0.0 0.00 0.39 0.06 1 1010.2
20260507010115 48 227 0.0 0.0 0.00 0.39 0.06 1 1010.3
20260507004558 47 227 0.0 0.0 0.00 0.39 0.06 1 1010.3
20260507003053 48 227 0.0 0.0 0.00 0.39 0.06 1 1010.3
20260507001555 47 227 0.0 0.0 0.02 0.39 0.06 1 1010.2
20260507000043 48 227 0.0 0.0 0.02 0.39 0.06 1 1010.2
20260506234539 48 227 0.0 0.0 0.03 0.39 0.06 1 1010.2
20260506233038 48 227 0.0 0.0 0.05 0.39 0.06 1 1010.2
20260506231533 48 227 0.0 0.0 0.04 0.38 0.05 1 1010.2
20260506230028 48 227 0.0 0.0 0.04 0.37 0.04 1 1010.2
20260506224522 48 227 0.0 0.0 0.03 0.36 0.03 1 1010.2
20260506223017 47 227 0.0 0.0 0.02 0.35 0.02 1 1010.2
20260506221514 47 227 0.0 0.0 0.01 0.34 0.01 1 1010.1
20260506220009 47 227 0.0 0.0 0.00 0.33 0.00 1 1010.0
20260506214504 47 227 0.0 3.0 0.00 0.33 0.33 1 1009.8
20260506213100 47 234 0.0 0.0 0.00 0.33 0.33 1 1009.8
20260506211559 47 234 0.0 0.0 0.00 0.33 0.33 1 1009.7
20260506210052 47 234 0.0 0.0 0.00 0.33 0.33 1 1009.6
20260506204548 48 234 0.0 0.0 0.00 0.33 0.33 1 1009.4
20260506203042 48 234 0.0 0.0 0.00 0.33 0.33 1 1009.2
20260506201538 49 234 0.0 0.0 0.00 0.33 0.33 4 1008.9
20260506200034 49 234 0.0 1.0 0.00 0.33 0.33 13 1008.7
20260506194535 50 234 0.0 0.0 0.00 0.33 0.33 21 1008.5
20260506193130 50 234 0.0 0.0 0.00 0.33 0.33 29 1008.3
20260506191550 51 234 0.0 0.0 0.00 0.33 0.33 35 1008.1
20260506190007 52 234 0.0 1.0 0.00 0.33 0.33 43 1007.9
20260506184557 53 234 0.0 1.0 0.00 0.33 0.33 55 1007.8
20260506183017 53 239 4.0 9.0 0.00 0.33 0.33 66 1007.7